Weather History for Kahului, HI

Change the Weather History Date:

Wednesday, March 27, 2013

  Actual Average Record
Temperature  
Mean Temperature 73 °F 73 °F  
Max Temperature 83 °F 82 °F 88 °F (1981)
Min Temperature 62 °F 65 °F 56 °F (1965)
Degree Days  
Heating Degree Days 0 0  
Month to date heating degree days 0 0  
Since 1 July heating degree days 0 0  
Cooling Degree Days 8 8  
Month to date cooling degree days 205 208  
Year to date cooling degree days 638 617  
Growing Degree Days 22 (Base 50)    
Moisture  
Dew Point 65 °F    
Average Humidity 78    
Maximum Humidity 93    
Minimum Humidity 62    
Precipitation  
Precipitation 0.00 in 0.09 in 2.18 in (1979)
Month to date precipitation 0.92 2.12  
Year to date precipitation 5.87 6.88  
Snow  
Snow 0.00 in - - ()
Month to date snowfall 0.0  
Since 1 July snowfall 0.0  
Snow Depth 0.00 in    
Sea Level Pressure  
Sea Level Pressure 30.00 in    
Wind  
Wind Speed 9 mph (NE)    
Max Wind Speed 24 mph    
Max Gust Speed 29 mph    
Visibility 10 miles    
Events Rain    
T = Trace of Precipitation, MM = Missing Value Source: NWS Daily Summary

Daily Weather History Graph

Daily Weather History Graph

Search for Another Location

Airport:

Trip Planner

Search our weather history database for the weather conditions in past years. The results will help you decide how hot, cold, wet, or windy it might be!

Date:

Astronomy

Mar. 27, 2013 Rise Set
Actual Time 6:23 AM HST 6:39 PM HST
Civil Twilight 6:00 AM HST 7:01 PM HST
Nautical Twilight 5:35 AM HST 7:27 PM HST
Astronomical Twilight 5:09 AM HST 7:53 PM HST
Moon 7:22 PM HST (3/27) 6:28 AM HST (3/27)
Length of Visible Light 13h 00m
Length of Day
12h 15m
Full, 100% of the Moon is Illuminated
Mar 27
Full
Apr 2
Last Quarter
Apr 9
New
Apr 18
First Quarter
Apr 25
Full

Hourly Weather History & Observations

Time (HST) Temp. Heat Index Dew Point Humidity Pressure Visibility Wind Dir Wind Speed Gust Speed Precip Events Conditions
12:54 AM 66.9 °F - 64.9 °F 93% 30.01 in 10.0 mi SSE 3.5 mph - N/A   Clear
1:54 AM 66.0 °F - 64.0 °F 93% 30.00 in 10.0 mi Calm Calm - N/A   Clear
2:54 AM 64.9 °F - 63.0 °F 93% 29.97 in 10.0 mi ESE 6.9 mph - N/A   Clear
3:54 AM 64.0 °F - 63.0 °F 96% 29.96 in 10.0 mi Calm Calm - N/A   Clear
4:54 AM 64.0 °F - 62.1 °F 93% 29.97 in 10.0 mi ESE 4.6 mph - N/A   Clear
5:54 AM 63.0 °F - 61.0 °F 93% 29.99 in 10.0 mi Calm Calm - N/A   Clear
6:54 AM 64.0 °F - 61.0 °F 90% 30.01 in 10.0 mi SE 5.8 mph - N/A   Clear
7:54 AM 72.0 °F - 64.0 °F 76% 30.02 in 10.0 mi Calm Calm - N/A   Scattered Clouds
8:54 AM 75.9 °F - 64.9 °F 69% 30.03 in 10.0 mi North 8.1 mph - N/A   Partly Cloudy
9:54 AM 80.1 °F 82.1 °F 66.0 °F 62% 30.03 in 10.0 mi NNE 15.0 mph - N/A   Scattered Clouds
10:54 AM 78.1 °F - 68.0 °F 71% 30.02 in 10.0 mi NNE 15.0 mph - N/A   Scattered Clouds
11:54 AM 81.0 °F 84.4 °F 70.0 °F 69% 30.01 in 10.0 mi NNE 18.4 mph - N/A   Scattered Clouds
12:54 PM 81.0 °F 84.1 °F 69.1 °F 67% 29.99 in 10.0 mi NNE 19.6 mph - N/A   Scattered Clouds
1:54 PM 82.0 °F 85.5 °F 69.1 °F 65% 29.95 in 10.0 mi NE 19.6 mph - N/A   Scattered Clouds
2:54 PM 80.1 °F 82.9 °F 69.1 °F 69% 29.95 in 10.0 mi NE 24.2 mph - N/A   Scattered Clouds
3:54 PM 78.1 °F - 68.0 °F 71% 29.95 in 10.0 mi NE 15.0 mph - N/A   Scattered Clouds
4:54 PM 75.9 °F - 68.0 °F 76% 29.98 in 10.0 mi NNE 17.3 mph - N/A   Scattered Clouds
5:54 PM 75.0 °F - 66.0 °F 73% 30.00 in 10.0 mi NE 16.1 mph - 0.00 in   Mostly Cloudy
6:19 PM 73.4 °F - 64.4 °F 73% 30.00 in 10.0 mi NE 23.0 mph 29.9 mph N/A   Mostly Cloudy
6:54 PM 71.1 °F - 68.0 °F 90% 30.04 in 10.0 mi NE 17.3 mph - 0.00 in Rain Light Rain
7:54 PM 69.1 °F - 62.1 °F 78% 30.05 in 10.0 mi East 9.2 mph - 0.00 in   Mostly Cloudy
8:54 PM 73.0 °F - 59.0 °F 61% 30.04 in 10.0 mi West 9.2 mph - N/A   Scattered Clouds
9:54 PM 72.0 °F - 62.1 °F 71% 30.04 in 10.0 mi NW 11.5 mph - N/A   Scattered Clouds
10:54 PM 72.0 °F - 63.0 °F 73% 30.04 in 10.0 mi NNE 19.6 mph 23.0 mph N/A   Scattered Clouds
11:54 PM 71.1 °F - 66.9 °F 87% 30.04 in 10.0 mi NE 12.7 mph 21.9 mph N/A   Clear